Location: Oshawa
(43.9000°N, 78.8670°W)
Time: 02:20:33
(UTC-05:00)

ITAMSAT 1 - Visible Passes

Search period start: 02 March 2015 00:00
Search period end: 12 March 2015 01:00
Orbit: 785 x 797 km, 98.7° (Epoch: 01 March)

Date Brightness Start Highest point End Pass type
(mag) Time Alt. Az. Time Alt. Az. Time Alt. Az.
02 Mar 10.0 03:55:35 10° N 03:56:07 12° NNW 03:56:07 12° NNW visible
03 Mar 10.1 03:25:56 10° N 03:26:41 14° N 03:26:41 14° N visible
04 Mar 10.3 02:56:33 10° NNE 02:57:14 14° NNE 02:57:14 14° NNE visible
05 Mar 10.5 02:27:26 10° NNE 02:27:48 12° NNE 02:27:48 12° NNE visible
05 Mar 9.9 04:07:48 10° NNW 04:08:33 13° NNW 04:08:33 13° NNW visible
06 Mar 9.9 03:37:59 10° N 03:39:07 16° N 03:39:07 16° N visible
07 Mar 10.0 03:08:31 10° N 03:09:41 17° N 03:09:41 17° N visible
08 Mar 10.2 03:39:18 10° NNE 03:40:15 16° NNE 03:40:15 16° NNE visible
08 Mar 9.8 05:20:07 10° NNW 05:21:00 13° NNW 05:21:00 13° NNW visible
09 Mar 10.5 03:10:21 10° NNE 03:10:49 12° NNE 03:10:49 12° NNE visible
09 Mar 9.7 04:50:07 10° N 04:51:34 17° NNW 04:51:34 17° NNW visible
10 Mar 9.7 04:20:31 10° N 04:22:08 20° N 04:22:08 20° N visible
11 Mar 9.9 03:51:12 10° NNE 03:52:41 20° NNE 03:52:41 20° NNE visible
11 Mar 9.8 05:32:36 10° NNW 05:33:27 12° NW 05:33:27 12° NW visible
